TimeCST,TemperatureF,Dew PointF,Humidity,Sea Level PressureIn,VisibilityMPH,Wind Direction,Wind SpeedMPH,Gust SpeedMPH,PrecipitationIn,Events,Conditions,WindDirDegrees,DateUTC
12:15 AM,37.4,28.4,70,30.30,10.0,Calm,Calm,-,N/A,,Clear,0,2012-11-15 06:15:00
12:35 AM,37.4,28.4,70,30.30,10.0,Calm,Calm,-,N/A,,Clear,0,2012-11-15 06:35:00
12:55 AM,35.6,28.4,75,30.30,10.0,Calm,Calm,-,N/A,,Clear,0,2012-11-15 06:55:00
1:15 AM,35.6,28.4,75,30.29,10.0,Calm,Calm,-,N/A,,Clear,0,2012-11-15 07:15:00
1:35 AM,35.6,28.4,75,30.29,10.0,South,3.5,-,N/A,,Clear,190,2012-11-15 07:35:00
1:55 AM,35.6,28.4,75,30.29,10.0,Calm,Calm,-,N/A,,Clear,0,2012-11-15 07:55:00
2:15 AM,35.6,28.4,75,30.30,10.0,Calm,Calm,-,N/A,,Clear,0,2012-11-15 08:15:00
2:35 AM,33.8,28.4,81,30.30,10.0,Calm,Calm,-,N/A,,Clear,0,2012-11-15 08:35:00
2:55 AM,33.8,28.4,81,30.30,10.0,Calm,Calm,-,N/A,,Clear,0,2012-11-15 08:55:00
3:15 AM,35.6,28.4,75,30.30,10.0,SE,3.5,-,N/A,,Clear,130,2012-11-15 09:15:00
3:35 AM,33.8,28.4,81,30.30,10.0,Calm,Calm,-,N/A,,Clear,0,2012-11-15 09:35:00
3:55 AM,33.8,28.4,81,30.29,10.0,South,3.5,-,N/A,,Clear,170,2012-11-15 09:55:00
4:15 AM,33.8,28.4,81,30.29,10.0,SE,3.5,-,N/A,,Clear,140,2012-11-15 10:15:00
4:35 AM,33.8,28.4,81,30.28,10.0,Calm,Calm,-,N/A,,Clear,0,2012-11-15 10:35:00
4:55 AM,33.8,28.4,81,30.29,10.0,ESE,4.6,-,N/A,,Clear,120,2012-11-15 10:55:00
5:15 AM,33.8,28.4,81,30.29,10.0,ESE,4.6,-,N/A,,Clear,120,2012-11-15 11:15:00
5:35 AM,33.8,28.4,81,30.30,10.0,ESE,3.5,-,N/A,,Clear,120,2012-11-15 11:35:00
5:55 AM,33.8,28.4,81,30.30,10.0,Calm,Calm,-,N/A,,Clear,0,2012-11-15 11:55:00
6:15 AM,32.0,28.4,87,30.31,10.0,Calm,Calm,-,N/A,,Clear,0,2012-11-15 12:15:00
6:35 AM,32.0,28.4,87,30.32,10.0,Calm,Calm,-,N/A,,Clear,0,2012-11-15 12:35:00
6:55 AM,32.0,28.4,87,30.32,10.0,Calm,Calm,-,N/A,,Clear,0,2012-11-15 12:55:00
7:15 AM,32.0,28.4,87,30.32,10.0,Calm,Calm,-,N/A,,Clear,0,2012-11-15 13:15:00
7:35 AM,32.0,30.2,93,30.32,10.0,Calm,Calm,-,N/A,,Clear,0,2012-11-15 13:35:00
7:55 AM,33.8,30.2,87,30.33,10.0,Calm,Calm,-,N/A,,Clear,0,2012-11-15 13:55:00
8:15 AM,35.6,32.0,87,30.34,10.0,Calm,Calm,-,N/A,,Clear,0,2012-11-15 14:15:00
8:35 AM,37.4,32.0,81,30.34,10.0,ESE,4.6,-,N/A,,Clear,110,2012-11-15 14:35:00
8:55 AM,42.8,32.0,66,30.33,10.0,SE,5.8,-,N/A,,Clear,140,2012-11-15 14:55:00
9:15 AM,44.6,33.8,66,30.34,10.0,SE,5.8,-,N/A,,Clear,140,2012-11-15 15:15:00
9:35 AM,46.4,33.8,62,30.34,10.0,SE,5.8,-,N/A,,Clear,140,2012-11-15 15:35:00
9:55 AM,46.4,33.8,62,30.34,10.0,SSE,5.8,-,N/A,,Clear,160,2012-11-15 15:55:00
10:15 AM,50.0,33.8,54,30.36,10.0,SSW,5.8,-,N/A,,Clear,200,2012-11-15 16:15:00
10:35 AM,51.8,33.8,50,30.35,10.0,South,6.9,-,N/A,,Clear,180,2012-11-15 16:35:00
11:15 AM,53.6,30.2,41,30.35,10.0,SSE,6.9,-,N/A,,Clear,160,2012-11-15 17:15:00
11:35 AM,53.6,30.2,41,30.34,10.0,SSE,6.9,-,N/A,,Clear,160,2012-11-15 17:35:00
11:55 AM,55.4,32.0,41,30.33,10.0,SE,6.9,-,N/A,,Clear,130,2012-11-15 17:55:00
12:15 PM,55.4,32.0,41,30.32,10.0,SSE,5.8,-,N/A,,Clear,150,2012-11-15 18:15:00
12:35 PM,55.4,32.0,41,30.32,10.0,East,4.6,-,N/A,,Clear,100,2012-11-15 18:35:00
12:55 PM,59.0,32.0,36,30.30,10.0,SE,3.5,-,N/A,,Clear,140,2012-11-15 18:55:00
1:15 PM,59.0,32.0,36,30.29,10.0,SE,6.9,-,N/A,,Clear,140,2012-11-15 19:15:00
1:35 PM,60.8,30.2,31,30.28,10.0,SSE,6.9,-,N/A,,Clear,150,2012-11-15 19:35:00
1:55 PM,60.8,30.2,31,30.28,10.0,SSE,4.6,-,N/A,,Clear,160,2012-11-15 19:55:00
2:15 PM,62.6,30.2,30,30.27,10.0,SSE,6.9,-,N/A,,Clear,150,2012-11-15 20:15:00
2:35 PM,62.6,30.2,30,30.26,10.0,SE,4.6,-,N/A,,Clear,130,2012-11-15 20:35:00
3:15 PM,62.6,30.2,30,30.26,10.0,SE,6.9,-,N/A,,Clear,140,2012-11-15 21:15:00
3:35 PM,62.6,30.2,30,30.26,10.0,SSE,5.8,-,N/A,,Clear,160,2012-11-15 21:35:00
3:55 PM,60.8,28.4,29,30.27,10.0,SSE,5.8,-,N/A,,Clear,150,2012-11-15 21:55:00
4:15 PM,60.8,30.2,31,30.27,10.0,SE,5.8,-,N/A,,Clear,140,2012-11-15 22:15:00
4:35 PM,60.8,30.2,31,30.27,10.0,ESE,5.8,-,N/A,,Clear,120,2012-11-15 22:35:00
4:55 PM,60.8,30.2,31,30.27,10.0,ESE,5.8,-,N/A,,Clear,110,2012-11-15 22:55:00
5:15 PM,57.2,30.2,36,30.28,10.0,ESE,5.8,-,N/A,,Clear,120,2012-11-15 23:15:00
5:35 PM,53.6,28.4,38,30.28,10.0,ESE,5.8,-,N/A,,Clear,120,2012-11-15 23:35:00
6:15 PM,50.0,30.2,47,30.29,10.0,ESE,4.6,-,N/A,,Clear,120,2012-11-16 00:15:00
6:35 PM,48.2,30.2,50,30.30,10.0,ESE,3.5,-,N/A,,Clear,120,2012-11-16 00:35:00
7:15 PM,44.6,30.2,57,30.32,10.0,Calm,Calm,-,N/A,,Clear,0,2012-11-16 01:15:00
7:35 PM,44.6,30.2,57,30.32,10.0,SE,3.5,-,N/A,,Clear,140,2012-11-16 01:35:00
8:15 PM,42.8,30.2,61,30.32,10.0,Calm,Calm,-,N/A,,Clear,0,2012-11-16 02:15:00
8:35 PM,42.8,30.2,61,30.33,10.0,Calm,Calm,-,N/A,,Clear,0,2012-11-16 02:35:00
8:55 PM,42.8,30.2,61,30.33,10.0,Calm,Calm,-,N/A,,Clear,0,2012-11-16 02:55:00
9:15 PM,41.0,30.2,65,30.34,10.0,Calm,Calm,-,N/A,,Clear,0,2012-11-16 03:15:00
9:35 PM,37.4,30.2,75,30.34,10.0,Calm,Calm,-,N/A,,Clear,0,2012-11-16 03:35:00
9:55 PM,35.6,30.2,81,30.35,10.0,Calm,Calm,-,N/A,,Clear,0,2012-11-16 03:55:00
10:15 PM,37.4,30.2,75,30.35,10.0,Calm,Calm,-,N/A,,Clear,0,2012-11-16 04:15:00
10:35 PM,37.4,30.2,75,30.35,10.0,Calm,Calm,-,N/A,,Clear,0,2012-11-16 04:35:00
10:55 PM,37.4,30.2,75,30.35,10.0,Calm,Calm,-,N/A,,Clear,0,2012-11-16 04:55:00
11:15 PM,37.4,30.2,75,30.36,10.0,Calm,Calm,-,N/A,,Clear,0,2012-11-16 05:15:00
11:35 PM,37.4,32.0,81,30.36,10.0,Calm,Calm,-,N/A,,Clear,0,2012-11-16 05:35:00
11:55 PM,39.2,32.0,75,30.35,10.0,Calm,Calm,-,N/A,,Clear,0,2012-11-16 05:55:00